| time (UTC) | temp F | wind direction | speed MPH | gust MPH | rain 1hr in | rain 24hr in | rain mn in | humidity % | barometer mb |
| 20260902194336 | 76 | 0.0 | 2.0 | 0.00 | 0.19 | 0.19 | 86 | 1017.2 | |
| 20260902193336 | 76 | 0.0 | 2.0 | 0.00 | 0.19 | 0.19 | 88 | 1017.3 | |
| 20260902192336 | 75 | 0.0 | 1.0 | 0.00 | 0.19 | 0.19 | 87 | 1017.5 | |
| 20260902191317 | 76 | 0.0 | 1.0 | 0.00 | 0.19 | 0.19 | 87 | 1017.7 | |
| 20260902190316 | 76 | 0.0 | 0.0 | 0.00 | 0.19 | 0.19 | 87 | 1017.7 | |
| 20260902185318 | 76 | 0.0 | 0.0 | 0.00 | 0.19 | 0.19 | 88 | 1017.6 | |
| 20260902184316 | 76 | 0.0 | 0.0 | 0.00 | 0.19 | 0.19 | 87 | 1017.6 | |
| 20260902183315 | 77 | 0.0 | 1.0 | 0.00 | 0.19 | 0.19 | 88 | 1017.6 | |
| 20260902182416 | 76 | 0.0 | 0.0 | 0.00 | 0.19 | 0.19 | 88 | 1017.6 | |
| 20260902181356 | 76 | 0.0 | 1.0 | 0.00 | 0.19 | 0.19 | 88 | 1017.7 | |
| 20260902175336 | 77 | 0.0 | 0.0 | 0.00 | 0.19 | 0.19 | 90 | 1018.0 | |
| 20260902174316 | 76 | 0.0 | 1.0 | 0.00 | 0.19 | 0.19 | 92 | 1018.2 | |
| 20260902173316 | 74 | 0.0 | 0.0 | 0.00 | 0.19 | 0.19 | 92 | 1018.4 | |
| 20260902172315 | 75 | 0.0 | 0.0 | 0.00 | 0.19 | 0.19 | 93 | 1018.4 | |
| 20260902171356 | 75 | 0.0 | 0.0 | 0.00 | 0.19 | 0.19 | 93 | 1018.6 | |
| 20260902170316 | 74 | 0.0 | 1.0 | 0.00 | 0.19 | 0.19 | 93 | 1018.8 | |
| 20260902165315 | 73 | 0.0 | 0.0 | 0.00 | 0.19 | 0.19 | 93 | 1018.9 | |
| 20260902164315 | 73 | 0.0 | 0.0 | 0.00 | 0.19 | 0.19 | 93 | 1018.9 | |
| 20260902163315 | 73 | 0.0 | 0.0 | 0.00 | 0.19 | 0.19 | 93 | 1018.9 | |
| 20260902162317 | 73 | 0.0 | 0.0 | 0.01 | 0.19 | 0.19 | 93 | 1019.0 | |
| 20260902161315 | 73 | 0.0 | 0.0 | 0.01 | 0.19 | 0.19 | 94 | 1018.8 | |
| 20260902160315 | 73 | 0.0 | 0.0 | 0.02 | 0.19 | 0.19 | 94 | 1018.7 | |
| 20260902155417 | 73 | 0.0 | 0.0 | 0.04 | 0.19 | 0.19 | 94 | 1018.6 | |
| 20260902154315 | 72 | 0.0 | 0.0 | 0.04 | 0.19 | 0.19 | 94 | 1018.5 | |
| 20260902153335 | 72 | 0.0 | 0.0 | 0.05 | 0.19 | 0.19 | 94 | 1018.3 | |
| 20260902152315 | 72 | 0.0 | 0.0 | 0.04 | 0.18 | 0.18 | 94 | 1018.4 | |
| 20260902151417 | 72 | 0.0 | 0.0 | 0.10 | 0.18 | 0.18 | 94 | 1018.6 | |
| 20260902150315 | 71 | 0.0 | 0.0 | 0.16 | 0.17 | 0.17 | 94 | 1018.9 | |
| 20260902145315 | 71 | 0.0 | 0.0 | 0.15 | 0.15 | 0.15 | 94 | 1018.9 | |
| 20260902144316 | 72 | 0.0 | 0.0 | 0.15 | 0.15 | 0.15 | 94 | 1018.7 | |
| 20260902143335 | 71 | 0.0 | 0.0 | 0.14 | 0.14 | 0.14 | 94 | 1018.6 | |
| 20260902142315 | 71 | 0.0 | 0.0 | 0.14 | 0.14 | 0.14 | 94 | 1018.4 | |
| 20260902141315 | 71 | 0.0 | 0.0 | 0.06 | 0.06 | 0.07 | 94 | 1018.7 | |
| 20260902140356 | 71 | 0.0 | 0.0 | 0.01 | 0.01 | 0.01 | 94 | 1018.7 | |
| 20260902135315 | 71 | 0.0 | 0.0 | 0.00 | 0.00 | 0.00 | 94 | 1018.9 | |
| 20260902134415 | 71 | 0.0 | 0.0 | 0.00 | 0.16 | 0.00 | 94 | 1019.3 | |
| 20260902133336 | 71 | 0.0 | 1.0 | 0.00 | 0.29 | 0.00 | 94 | 1019.3 | |
| 20260902132315 | 71 | 0.0 | 0.0 | 0.00 | 0.29 | 0.00 | 94 | 1018.9 | |
| 20260902131335 | 71 | 0.0 | 0.0 | 0.00 | 0.29 | 0.00 | 94 | 1018.3 | |
| 20260902130316 | 71 | 0.0 | 0.0 | 0.00 | 0.29 | 0.00 | 94 | 1018.8 | |
| 20260902125355 | 71 | 0.0 | 1.0 | 0.00 | 0.29 | 0.00 | 94 | 1018.5 | |
| 20260902124415 | 71 | 0.0 | 0.0 | 0.00 | 0.32 | 0.00 | 94 | 1018.4 | |
| 20260902123336 | 70 | 0.0 | 0.0 | 0.00 | 0.43 | 0.00 | 94 | 1018.5 | |
| 20260902122315 | 69 | 0.0 | 0.0 | 0.00 | 0.45 | 0.00 | 94 | 1018.5 | |
| 20260902121315 | 69 | 0.0 | 0.0 | 0.00 | 0.63 | 0.00 | 94 | 1018.0 | |
| 20260902120455 | 68 | 0.0 | 0.0 | 0.00 | 0.79 | 0.00 | 94 | 1017.9 | |
| 20260902115336 | 68 | 0.0 | 0.0 | 0.00 | 0.91 | 0.00 | 94 | 1018.0 | |
| 20260902114315 | 68 | 0.0 | 0.0 | 0.00 | 1.01 | 0.00 | 94 | 1018.0 | |
| 20260902113416 | 68 | 0.0 | 0.0 | 0.00 | 1.21 | 0.00 | 94 | 1017.8 | |
| 20260902112335 | 68 | 0.0 | 0.0 | 0.00 | 1.28 | 0.00 | 94 | 1017.7 | |
| 20260902111316 | 68 | 0.0 | 0.0 | 0.00 | 1.29 | 0.00 | 94 | 1017.8 | |
| 20260902110315 | 68 | 0.0 | 0.0 | 0.00 | 1.29 | 0.00 | 94 | 1017.7 | |
| 20260902105355 | 68 | 0.0 | 0.0 | 0.00 | 1.30 | 0.00 | 94 | 1017.7 | |
| 20260902104356 | 67 | 0.0 | 0.0 | 0.00 | 1.30 | 0.00 | 94 | 1017.9 | |
| 20260902103415 | 67 | 0.0 | 0.0 | 0.00 | 1.30 | 0.00 | 94 | 1018.1 | |
| 20260902102356 | 67 | 0.0 | 0.0 | 0.00 | 1.30 | 0.00 | 94 | 1018.3 | |
| 20260902101335 | 67 | 0.0 | 0.0 | 0.00 | 1.31 | 0.00 | 94 | 1018.4 | |
| 20260902100315 | 67 | 0.0 | 0.0 | 0.00 | 1.31 | 0.00 | 94 | 1018.2 | |
| 20260902095316 | 67 | 0.0 | 0.0 | 0.00 | 1.31 | 0.00 | 94 | 1018.3 | |
| 20260902094355 | 67 | 0.0 | 0.0 | 0.00 | 1.31 | 0.00 | 94 | 1018.3 | |
| 20260902093355 | 67 | 0.0 | 0.0 | 0.00 | 1.31 | 0.00 | 93 | 1018.3 | |
| 20260902092316 | 67 | 0.0 | 0.0 | 0.00 | 1.31 | 0.00 | 94 | 1018.5 | |
| 20260902091336 | 67 | 0.0 | 0.0 | 0.00 | 1.31 | 0.00 | 94 | 1018.5 | |
| 20260902090315 | 67 | 0.0 | 0.0 | 0.00 | 1.31 | 0.00 | 94 | 1018.1 | |
| 20260902085415 | 67 | 0.0 | 0.0 | 0.00 | 1.31 | 0.00 | 93 | 1018.2 | |
| 20260902084335 | 67 | 0.0 | 0.0 | 0.00 | 1.31 | 0.00 | 93 | 1018.2 | |
| 20260902083315 | 66 | 0.0 | 0.0 | 0.00 | 1.31 | 0.00 | 93 | 1018.2 | |
| 20260902082315 | 66 | 0.0 | 0.0 | 0.00 | 1.31 | 0.00 | 93 | 1018.2 | |
| 20260902081315 | 67 | 0.0 | 0.0 | 0.00 | 1.31 | 0.00 | 93 | 1018.2 | |
| 20260902080315 | 67 | 0.0 | 0.0 | 0.00 | 1.31 | 0.00 | 93 | 1018.0 | |
| 20260902075357 | 67 | 0.0 | 0.0 | 0.00 | 1.31 | 0.00 | 93 | 1018.0 | |
| 20260902074417 | 67 | 0.0 | 0.0 | 0.00 | 1.32 | 0.00 | 93 | 1018.0 | |
| 20260902073338 | 67 | 0.0 | 0.0 | 0.00 | 1.34 | 0.00 | 93 | 1018.2 | |
| 20260902072337 | 68 | 0.0 | 1.0 | 0.00 | 1.37 | 0.00 | 93 | 1018.2 | |
| 20260902071317 | 68 | 0.0 | 0.0 | 0.00 | 1.37 | 0.00 | 93 | 1018.1 | |
| 20260902070337 | 68 | 0.0 | 0.0 | 0.00 | 1.37 | 0.00 | 93 | 1018.2 | |
| 20260902064317 | 68 | 0.0 | 0.0 | 0.00 | 1.37 | 0.00 | 93 | 1018.2 | |
| 20260902063317 | 68 | 0.0 | 0.0 | 0.00 | 1.37 | 0.00 | 93 | 1018.2 | |
| 20260902062337 | 69 | 0.0 | 0.0 | 0.00 | 1.37 | 0.00 | 93 | 1018.2 | |
| 20260902061317 | 69 | 0.0 | 0.0 | 0.00 | 1.37 | 0.00 | 93 | 1018.2 | |
| 20260902060437 | 69 | 0.0 | 0.0 | 0.00 | 1.37 | 0.00 | 93 | 1018.3 | |
| 20260902055337 | 69 | 0.0 | 0.0 | 0.00 | 1.37 | 0.00 | 93 | 1018.3 | |
| 20260902054317 | 70 | 0.0 | 0.0 | 0.00 | 1.37 | 0.00 | 93 | 1018.2 | |
| 20260902053316 | 70 | 0.0 | 0.0 | 0.00 | 1.37 | 0.00 | 93 | 1018.1 | |
| 20260902052316 | 70 | 0.0 | 0.0 | 0.00 | 1.37 | 0.00 | 93 | 1018.0 | |
| 20260902051315 | 70 | 0.0 | 0.0 | 0.00 | 1.37 | 0.00 | 93 | 1018.0 | |
| 20260902050356 | 70 | 0.0 | 0.0 | 0.00 | 1.37 | 0.00 | 93 | 1018.0 | |
| 20260902045358 | 71 | 0.0 | 0.0 | 0.00 | 1.37 | 0.00 | 93 | 1017.9 | |
| 20260902044316 | 71 | 0.0 | 0.0 | 0.00 | 1.37 | 0.00 | 93 | 1017.9 | |
| 20260902043336 | 71 | 0.0 | 0.0 | 0.00 | 1.37 | 0.00 | 93 | 1017.8 | |
| 20260902042336 | 71 | 0.0 | 0.0 | 0.00 | 1.37 | 0.00 | 93 | 1017.8 | |
| 20260902041338 | 71 | 0.0 | 0.0 | 0.00 | 1.37 | 0.00 | 93 | 1017.7 | |
| 20260902040356 | 71 | 0.0 | 0.0 | 0.00 | 1.37 | 0.00 | 93 | 1017.5 | |
| 20260902035337 | 71 | 0.0 | 0.0 | 0.00 | 1.37 | 1.37 | 93 | 1017.5 | |
| 20260902034317 | 71 | 0.0 | 0.0 | 0.00 | 1.37 | 1.37 | 93 | 1017.5 | |
| 20260902033316 | 71 | 0.0 | 0.0 | 0.00 | 1.37 | 1.37 | 93 | 1017.4 | |
| 20260902032316 | 71 | 0.0 | 0.0 | 0.00 | 1.37 | 1.37 | 93 | 1017.3 | |
| 20260902031357 | 71 | 0.0 | 0.0 | 0.00 | 1.37 | 1.37 | 93 | 1017.3 | |
| 20260902030317 | 71 | 0.0 | 0.0 | 0.00 | 1.37 | 1.37 | 93 | 1017.3 | |
| 20260902025317 | 71 | 0.0 | 0.0 | 0.00 | 1.37 | 1.37 | 93 | 1017.1 | |
| 20260902024337 | 71 | 0.0 | 0.0 | 0.00 | 1.37 | 1.37 | 93 | 1017.0 | |
| 20260902023316 | 71 | 0.0 | 0.0 | 0.00 | 1.37 | 1.37 | 93 | 1017.1 | |
| 20260902022317 | 71 | 0.0 | 0.0 | 0.00 | 1.37 | 1.37 | 93 | 1017.0 | |
| 20260902021337 | 71 | 0.0 | 0.0 | 0.00 | 1.37 | 1.37 | 92 | 1017.1 | |
| 20260902020337 | 72 | 0.0 | 0.0 | 0.00 | 1.37 | 1.37 | 92 | 1017.1 | |
| 20260902015316 | 72 | 0.0 | 0.0 | 0.00 | 1.37 | 1.37 | 92 | 1017.0 | |
| 20260902014336 | 72 | 0.0 | 0.0 | 0.00 | 1.37 | 1.37 | 92 | 1017.0 | |
| 20260902013316 | 72 | 0.0 | 0.0 | 0.00 | 1.37 | 1.37 | 92 | 1016.9 | |
| 20260902012416 | 72 | 0.0 | 0.0 | 0.00 | 1.37 | 1.37 | 92 | 1016.7 | |
| 20260902011336 | 72 | 0.0 | 0.0 | 0.00 | 1.37 | 1.37 | 92 | 1016.6 | |
| 20260902010357 | 73 | 0.0 | 0.0 | 0.00 | 1.37 | 1.37 | 92 | 1016.6 | |
| 20260902005316 | 73 | 0.0 | 0.0 | 0.00 | 1.37 | 1.37 | 92 | 1016.5 | |
| 20260902004336 | 73 | 0.0 | 0.0 | 0.00 | 1.38 | 1.37 | 92 | 1016.3 | |
| 20260902003337 | 73 | 0.0 | 0.0 | 0.00 | 1.38 | 1.37 | 92 | 1016.1 | |
| 20260902002336 | 74 | 0.0 | 0.0 | 0.00 | 1.39 | 1.37 | 92 | 1016.0 | |
| 20260902001316 | 74 | 0.0 | 0.0 | 0.00 | 1.40 | 1.37 | 91 | 1016.0 | |
| 20260902000322 | 74 | 0.0 | 0.0 | 0.00 | 1.40 | 1.37 | 91 | 1015.8 | |
| 20260901235356 | 74 | 0.0 | 0.0 | 0.00 | 1.40 | 1.37 | 91 | 1015.7 | |
| 20260901234316 | 75 | 0.0 | 0.0 | 0.00 | 1.40 | 1.37 | 91 | 1015.7 | |
| 20260901233317 | 75 | 0.0 | 0.0 | 0.00 | 1.40 | 1.37 | 91 | 1015.8 | |
| 20260901232336 | 75 | 0.0 | 0.0 | 0.00 | 1.40 | 1.37 | 90 | 1015.8 | |
| 20260901231436 | 76 | 0.0 | 0.0 | 0.00 | 1.40 | 1.37 | 90 | 1015.7 | |
| 20260901230416 | 76 | 0.0 | 0.0 | 0.00 | 1.40 | 1.37 | 89 | 1015.4 | |
| 20260901225357 | 77 | 0.0 | 0.0 | 0.00 | 1.40 | 1.37 | 89 | 1015.5 | |
| 20260901224316 | 77 | 0.0 | 0.0 | 0.00 | 1.40 | 1.37 | 89 | 1015.6 | |
| 20260901223316 | 78 | 0.0 | 0.0 | 0.00 | 1.41 | 1.37 | 88 | 1015.4 | |
| 20260901222317 | 78 | 0.0 | 0.0 | 0.00 | 1.41 | 1.37 | 88 | 1015.4 | |
| 20260901221316 | 78 | 0.0 | 0.0 | 0.00 | 1.41 | 1.37 | 86 | 1015.4 | |
| 20260901220316 | 79 | 0.0 | 0.0 | 0.00 | 1.43 | 1.37 | 82 | 1015.6 | |
| 20260901215316 | 80 | 0.0 | 0.0 | 0.00 | 1.43 | 1.37 | 81 | 1015.6 | |
| 20260901214316 | 82 | 0.0 | 0.0 | 0.00 | 1.44 | 1.37 | 78 | 1015.6 | |
| 20260901213358 | 81 | 0.0 | 0.0 | 0.00 | 1.45 | 1.37 | 80 | 1015.6 | |
| 20260901212316 | 82 | 0.0 | 1.0 | 0.00 | 1.45 | 1.37 | 79 | 1015.5 | |
| 20260901211316 | 82 | 0.0 | 0.0 | 0.00 | 1.45 | 1.37 | 80 | 1015.3 | |
| 20260901210317 | 81 | 0.0 | 0.0 | 0.00 | 1.45 | 1.37 | 81 | 1015.3 | |
| 20260901205316 | 81 | 0.0 | 1.0 | 0.00 | 1.46 | 1.37 | 81 | 1015.3 | |
| 20260901204317 | 79 | 0.0 | 0.0 | 0.00 | 1.46 | 1.37 | 84 | 1015.3 | |
| 20260901203336 | 80 | 0.0 | 2.0 | 0.00 | 1.46 | 1.37 | 81 | 1015.5 | |
| 20260901202316 | 81 | 0.0 | 1.0 | 0.00 | 1.46 | 1.37 | 79 | 1015.6 | |
| 20260901201336 | 83 | 0.0 | 1.0 | 0.00 | 1.47 | 1.37 | 79 | 1015.6 | |
| 20260901200337 | 81 | 0.0 | 1.0 | 0.00 | 1.48 | 1.37 | 82 | 1015.7 | |
| 20260901195316 | 80 | 0.0 | 0.0 | 0.00 | 1.48 | 1.37 | 82 | 1015.7 |